When you browse on this site, cookies collect data to enhance your experience and personalize the content and advertising you see.
Visit our Privacy Policy to learn more. By continuing to use the site, you agree to this use of cookies and data.
  • en Suisse
  • Liste des pays
  • À 7 jours
  • Température de l'eau
  • Carte météo
  • Widgets météo
  • user-avatar
    Se connecter

    Météo par heure à Nashavar

    Ce jour, 20 Février, Jeudi

    Heure Température Précipitation Vent Pression Humidité
    00:00 +12°C° 0.9 mm 3 m/s 731 mmHg 76%
    01:00 +11°C° 0.9 mm 4 m/s 731 mmHg 78%
    02:00 +11°C° 0.9 mm 4 m/s 731 mmHg 80%
    03:00 +11°C° 0.4 mm 4 m/s 731 mmHg 79%
    04:00 +10°C° 0.4 mm 4 m/s 731 mmHg 77%
    05:00 +9°C° 0.4 mm 5 m/s 731 mmHg 76%
    06:00 +10°C° 0.5 mm 4 m/s 731 mmHg 76%
    07:00 +11°C° 0.5 mm 4 m/s 732 mmHg 76%
    08:00 +11°C° 0.5 mm 4 m/s 732 mmHg 76%
    09:00 +12°C° 0.4 mm 5 m/s 733 mmHg 70%
    10:00 +14°C° 0.4 mm 5 m/s 733 mmHg 65%
    11:00 +15°C° 0.4 mm 5 m/s 734 mmHg 59%
    12:00 +16°C° 0.1 mm 5 m/s 733 mmHg 55%
    13:00 +17°C° 0.1 mm 5 m/s 733 mmHg 50%
    14:00 +20°C° 0.1 mm 5 m/s 732 mmHg 46%
    15:00 +19°C° 0.3 mm 5 m/s 732 mmHg 48%
    16:00 +19°C° 0.3 mm 4 m/s 732 mmHg 49%
    17:00 +19°C° 0.3 mm 4 m/s 732 mmHg 51%
    18:00 +18°C° 0 mm 4 m/s 732 mmHg 52%
    19:00 +17°C° 0 mm 3 m/s 732 mmHg 53%
    20:00 +16°C° 0 mm 3 m/s 732 mmHg 54%
    21:00 +16°C° 0 mm 3 m/s 732 mmHg 53%
    22:00 +16°C° 0 mm 3 m/s 732 mmHg 53%
    23:00 +15°C° 0 mm 2 m/s 732 mmHg 52%

    Demain, 21 Février, Vendredi

    Heure Température Précipitation Vent Pression Humidité
    00:00 +15°C° 0 mm 2 m/s 732 mmHg 50%
    01:00 +15°C° 0 mm 2 m/s 732 mmHg 49%
    02:00 +15°C° 0 mm 2 m/s 732 mmHg 48%
    03:00 +14°C° 0 mm 2 m/s 731 mmHg 48%
    04:00 +14°C° 0 mm 2 m/s 731 mmHg 48%
    05:00 +13°C° 0 mm 1 m/s 731 mmHg 49%
    06:00 +14°C° 0 mm 1 m/s 732 mmHg 48%
    07:00 +15°C° 0 mm 1 m/s 733 mmHg 47%
    08:00 +15°C° 0 mm 1 m/s 733 mmHg 46%
    09:00 +18°C° 0 mm 1 m/s 733 mmHg 40%
    10:00 +20°C° 0 mm 1 m/s 734 mmHg 34%
    11:00 +22°C° 0 mm 1 m/s 734 mmHg 29%
    18:00 +21°C° 0 mm 0 m/s 733 mmHg 32%
    19:00 +19°C° 0 mm 0 m/s 734 mmHg 35%
    20:00 +17°C° 0 mm 0 m/s 734 mmHg 38%
    21:00 +17°C° 0 mm 0 m/s 734 mmHg 39%
    22:00 +17°C° 0 mm 0 m/s 734 mmHg 40%
    23:00 +18°C° 0 mm 1 m/s 734 mmHg 41%

    Après-demain, 22 Février, Samedi

    Heure Température Précipitation Vent Pression Humidité
    00:00 +16°C° 0 mm 0 m/s 734 mmHg 42%
    01:00 +15°C° 0 mm 0 m/s 734 mmHg 43%
    02:00 +15°C° 0 mm 0 m/s 734 mmHg 44%
    03:00 +14°C° 0 mm 0 m/s 734 mmHg 45%
    04:00 +14°C° 0 mm 0 m/s 734 mmHg 46%
    05:00 +13°C° 0 mm 0 m/s 733 mmHg 47%
    06:00 +14°C° 0 mm 0 m/s 734 mmHg 48%
    07:00 +14°C° 0 mm 0 m/s 734 mmHg 48%
    08:00 +15°C° 0 mm 0 m/s 735 mmHg 49%
    09:00 +17°C° 0 mm 0 m/s 735 mmHg 42%
    10:00 +21°C° 0 mm 1 m/s 735 mmHg 36%
    11:00 +23°C° 0 mm 1 m/s 735 mmHg 29%
    12:00 +23°C° 0 mm 1 m/s 735 mmHg 27%
    13:00 +24°C° 0 mm 1 m/s 734 mmHg 25%
    14:00 +25°C° 0 mm 1 m/s 734 mmHg 24%
    15:00 +25°C° 0 mm 1 m/s 734 mmHg 25%
    16:00 +25°C° 0 mm 1 m/s 733 mmHg 27%
    17:00 +25°C° 0 mm 1 m/s 733 mmHg 28%
    18:00 +21°C° 0 mm 0 m/s 733 mmHg 31%
    19:00 +20°C° 0 mm 0 m/s 733 mmHg 33%
    20:00 +18°C° 0 mm 0 m/s 734 mmHg 35%
    21:00 +17°C° 0 mm 0 m/s 734 mmHg 37%
    22:00 +19°C° 0 mm 1 m/s 734 mmHg 38%
    23:00 +18°C° 0 mm 1 m/s 734 mmHg 39%

    23 Février, Dimanche

    Heure Température Précipitation Vent Pression Humidité
    00:00 +18°C° 0 mm 1 m/s 733 mmHg 40%
    01:00 +18°C° 0 mm 1 m/s 733 mmHg 41%
    02:00 +16°C° 0 mm 1 m/s 733 mmHg 42%
    03:00 +16°C° 0 mm 1 m/s 732 mmHg 42%
    04:00 +15°C° 0 mm 1 m/s 732 mmHg 43%
    05:00 +15°C° 0 mm 1 m/s 732 mmHg 44%
    06:00 +15°C° 0 mm 1 m/s 732 mmHg 44%
    07:00 +16°C° 0 mm 1 m/s 733 mmHg 44%
    08:00 +18°C° 0 mm 1 m/s 733 mmHg 44%
    09:00 +19°C° 0 mm 1 m/s 733 mmHg 38%
    10:00 +21°C° 0 mm 1 m/s 733 mmHg 32%
    11:00 +23°C° 0 mm 1 m/s 734 mmHg 27%
    12:00 +24°C° 0 mm 1 m/s 733 mmHg 25%
    13:00 +25°C° 0 mm 1 m/s 733 mmHg 24%
    14:00 +26°C° 0 mm 1 m/s 733 mmHg 22%
    15:00 +26°C° 0 mm 1 m/s 732 mmHg 24%
    16:00 +26°C° 0 mm 1 m/s 732 mmHg 25%
    17:00 +26°C° 0 mm 1 m/s 731 mmHg 27%
    18:00 +24°C° 0 mm 1 m/s 731 mmHg 29%
    19:00 +22°C° 0 mm 1 m/s 732 mmHg 31%
    20:00 +21°C° 0 mm 1 m/s 732 mmHg 33%
    21:00 +20°C° 0 mm 1 m/s 732 mmHg 34%
    22:00 +19°C° 0 mm 1 m/s 732 mmHg 34%
    23:00 +19°C° 0 mm 1 m/s 732 mmHg 35%

    24 Février, Lundi

    Heure Température Précipitation Vent Pression Humidité
    00:00 +18°C° 0 mm 1 m/s 731 mmHg 36%
    01:00 +18°C° 0 mm 1 m/s 731 mmHg 38%
    02:00 +16°C° 0 mm 1 m/s 731 mmHg 39%
    03:00 +16°C° 0 mm 1 m/s 730 mmHg 40%
    04:00 +15°C° 0 mm 1 m/s 730 mmHg 40%
    05:00 +15°C° 0 mm 1 m/s 729 mmHg 41%
    06:00 +16°C° 0 mm 1 m/s 730 mmHg 41%
    07:00 +16°C° 0 mm 1 m/s 730 mmHg 42%
    08:00 +18°C° 0 mm 1 m/s 731 mmHg 42%
    09:00 +20°C° 0 mm 1 m/s 731 mmHg 37%
    10:00 +22°C° 0 mm 1 m/s 731 mmHg 31%
    11:00 +23°C° 0 mm 1 m/s 731 mmHg 25%
    12:00 +24°C° 0 mm 1 m/s 731 mmHg 24%
    13:00 +25°C° 0 mm 1 m/s 730 mmHg 22%
    14:00 +26°C° 0 mm 1 m/s 730 mmHg 21%
    15:00 +26°C° 0 mm 1 m/s 730 mmHg 22%
    16:00 +26°C° 0 mm 1 m/s 729 mmHg 24%
    17:00 +26°C° 0 mm 1 m/s 729 mmHg 25%
    18:00 +24°C° 0 mm 1 m/s 729 mmHg 27%
    19:00 +22°C° 0 mm 1 m/s 730 mmHg 30%
    20:00 +21°C° 0 mm 1 m/s 730 mmHg 32%
    21:00 +20°C° 0 mm 1 m/s 730 mmHg 33%
    22:00 +20°C° 0 mm 1 m/s 730 mmHg 35%
    23:00 +19°C° 0 mm 1 m/s 730 mmHg 36%

    25 Février, Mardi

    Heure Température Précipitation Vent Pression Humidité
    00:00 +18°C° 0 mm 1 m/s 730 mmHg 36%
    01:00 +18°C° 0 mm 1 m/s 729 mmHg 37%
    02:00 +16°C° 0 mm 1 m/s 729 mmHg 37%
    03:00 +16°C° 0 mm 1 m/s 729 mmHg 37%
    04:00 +16°C° 0 mm 1 m/s 729 mmHg 37%
    05:00 +15°C° 0 mm 1 m/s 729 mmHg 38%
    06:00 +16°C° 0 mm 1 m/s 729 mmHg 38%
    07:00 +16°C° 0 mm 1 m/s 730 mmHg 39%
    08:00 +18°C° 0 mm 1 m/s 730 mmHg 40%
    09:00 +20°C° 0 mm 1 m/s 730 mmHg 34%
    10:00 +22°C° 0 mm 1 m/s 731 mmHg 29%
    11:00 +23°C° 0 mm 1 m/s 731 mmHg 23%
    12:00 +24°C° 0 mm 1 m/s 731 mmHg 22%
    13:00 +25°C° 0 mm 1 m/s 730 mmHg 20%
    14:00 +26°C° 0 mm 1 m/s 730 mmHg 19%
    15:00 +26°C° 0 mm 1 m/s 730 mmHg 20%
    16:00 +26°C° 0 mm 1 m/s 730 mmHg 22%
    17:00 +26°C° 0 mm 1 m/s 729 mmHg 23%
    18:00 +24°C° 0 mm 1 m/s 730 mmHg 25%
    19:00 +22°C° 0 mm 1 m/s 730 mmHg 26%
    20:00 +20°C° 0 mm 1 m/s 730 mmHg 27%
    21:00 +20°C° 0 mm 1 m/s 731 mmHg 28%
    22:00 +19°C° 0 mm 1 m/s 731 mmHg 28%
    23:00 +19°C° 0 mm 1 m/s 731 mmHg 29%
    Voir plus